Flag for Switzerland Weather past 2 weeks in Emmen, Lucerne, Switzerland

Now
58 °F

Cool.


Feels Like: 58 °F
Forecast: 50 / 70 °F
Wind: 1 mph from Northwest

Location: Giswil

Current Time: May 30, 2015 at 12:42:28 AM

Latest Report: May 29, 2015 at 11:00 PM


Visibility: N/A

Pressure: 29.90 "Hg

Humidity: 69%

Dew point: 48 °F

Location of EmmenLocation

Historic Weather in Emmen — Graph

°F

Emmen temperature yesterday

Maximum temperature yesterday: 74 °F (at 3:00 PM)
Minimum temperature yesterday: 44 °F (at 5:00 AM)
Average temperature yesterday: 61 °F

Past Weeks' High & Low Weather Summary

 TemperatureHumidityPressure
High74 °F (May 29, 3:00 PM)100% (May 22, 6:00 AM)30.35 "Hg (May 22, 6:00 AM)
Low38 °F (May 28, 6:00 AM)32% (May 29, 2:00 PM)29.73 "Hg (May 18, 7:00 PM)
Average54 °F80%30.08 "Hg
* Reported May 14 10:00 PM — May 29 10:00 PM, Emmen, Weather by CustomWeather, © 2015

Note: Actual official high and low records may vary slightly from our data, if they occured in-between our weather recording intervals... More about our weather records

Advertising

Emmen weather history for previous 24 hours

 ConditionsComfort  
Time TempWeatherWind HumidityBarometerVisibility
10:00 PM
Fri, May 29
64 °FMild.2 mph53%29.85 "HgN/A
9:00 PM65 °FMild.2 mph55%29.83 "HgN/A
8:00 PM71 °FMild.2 mph50%29.80 "HgN/A
7:00 PM74 °FMild.2 mph42%29.78 "HgN/A
6:00 PM73 °FMild.2 mph45%29.78 "HgN/A
5:00 PM73 °FMild.3 mph47%29.78 "HgN/A
4:00 PM74 °FMild.3 mph42%29.79 "HgN/A
3:00 PM74 °FMild.2 mph38%29.81 "HgN/A
2:00 PM74 °FMild.3 mph32%29.82 "HgN/A
1:00 PM72 °FMild.2 mph35%29.85 "HgN/A
12:00 PM69 °FMild.2 mph42%29.88 "HgN/A
11:00 AM64 °FMild.2 mph46%29.91 "HgN/A
10:00 AM61 °FCool.2 mph62%29.94 "HgN/A
9:00 AM58 °FCool.1 mph69%29.96 "HgN/A
8:00 AM54 °FCool.1 mph85%29.98 "HgN/A
7:00 AM47 °FCool.1 mph92%30.01 "HgN/A
6:00 AM45 °FCool.1 mph94%30.02 "HgN/A
5:00 AM44 °FQuite cool.2 mph96%30.04 "HgN/A
4:00 AM46 °FCool.1 mph94%30.05 "HgN/A
3:00 AM49 °FCool.1 mph89%30.06 "HgN/A
2:00 AM48 °FCool.1 mph90%30.07 "HgN/A
1:00 AM51 °FCool.2 mph85%30.07 "HgN/A
Weather by CustomWeather, © 2015

See weather overviewHow to use our weather pages